College Station, TX

12:39 PM CDT on May 29, 2017 (GMT -0500)
Easterwood

Weather History for KCLL - November, 2010

Change the Weather History Date:

Thursday, November 11, 2010

  Actual Average Record
Temperature  
Mean Temperature 74 °F 62 °F  
Max Temperature 84 °F 73 °F 87 °F (1927)
Min Temperature 63 °F 52 °F 25 °F (1950)
Degree Days  
Heating Degree Days 0 5  
Month to date heating degree days 48 43  
Since 1 July heating degree days 60 80  
Cooling Degree Days 9 2  
Month to date cooling degree days 30 35  
Year to date cooling degree days 3345 3047  
Growing Degree Days 22 (Base 50)    
Moisture  
Dew Point 65 °F    
Average Humidity 82    
Maximum Humidity 100    
Minimum Humidity 47    
Precipitation  
Precipitation 0.00 in 0.12 in 1.07 in (1939)
Month to date precipitation 0.27 1.25  
Year to date precipitation 26.34 34.86  
Sea Level Pressure  
Sea Level Pressure 30.12 in    
Wind  
Wind Speed 10 mph (SE)    
Max Wind Speed 21 mph    
Max Gust Speed 24 mph    
Visibility 8 miles    
Events      
T = Trace of Precipitation, MM = Missing Value Source: NWS Daily Summary

Daily Weather History Graph

Daily Weather History Graph

Search for Another Location

Airport or City:

Trip Planner

Search our weather history database for the weather conditions in past years. The results will help you decide how hot, cold, wet, or windy it might be!

Date:

Astronomy

Nov. 11, 2010 Rise Set
Actual Time 6:48 AM CST 5:30 PM CST
Civil Twilight 6:22 AM CST 5:55 PM CST
Nautical Twilight 5:54 AM CST 6:24 PM CST
Astronomical Twilight 5:25 AM CST 6:53 PM CST
Moon 11:46 AM CST (11/11) 10:38 PM CST (11/11)
Length of Visible Light 11h 32m
Length of Day
10h 42m
Waxing Crescent, 32% of the Moon is Illuminated
Nov 11
Waxing Crescent
Nov 13
First Quarter
Nov 21
Full
Nov 28
Last Quarter
Dec 5
New

Hourly Weather History & Observations

Time (CST) Temp. Heat Index Dew Point Humidity Pressure Visibility Wind Dir Wind Speed Gust Speed Precip Events Conditions
12:53 AM 64.9 °F - 64.0 °F 97% 30.06 in 10.0 mi ESE 6.9 mph - N/A   Partly Cloudy
1:53 AM 64.4 °F - 62.6 °F 94% 30.07 in 10.0 mi SE 4.6 mph - N/A   Mostly Cloudy
2:53 AM 66.0 °F - 64.0 °F 93% 30.06 in 10.0 mi SE 6.9 mph - N/A   Clear
3:53 AM 64.0 °F - 63.0 °F 96% 30.07 in 10.0 mi ESE 4.6 mph - N/A   Clear
4:53 AM 63.0 °F - 62.1 °F 97% 30.09 in 9.0 mi East 3.5 mph - N/A   Clear
5:53 AM 64.0 °F - 63.0 °F 96% 30.09 in 6.0 mi ESE 5.8 mph - N/A   Clear
6:53 AM 66.0 °F - 64.0 °F 93% 30.11 in 5.0 mi East 4.6 mph - N/A   Overcast
7:01 AM 66.2 °F - 64.4 °F 94% 30.12 in 4.0 mi ESE 4.6 mph - N/A   Overcast
7:10 AM 66.2 °F - 64.4 °F 94% 30.12 in 3.0 mi East 6.9 mph - N/A   Overcast
7:26 AM 66.2 °F - 66.2 °F 100% 30.13 in 2.5 mi ESE 9.2 mph - N/A   Overcast
7:33 AM 66.2 °F - 66.2 °F 100% 30.13 in 3.0 mi East 8.1 mph - N/A   Overcast
7:53 AM 66.9 °F - 66.0 °F 97% 30.12 in 4.0 mi ESE 8.1 mph - N/A   Mostly Cloudy
8:26 AM 68.0 °F - 66.2 °F 94% 30.14 in 6.0 mi ESE 8.1 mph - N/A   Scattered Clouds
8:53 AM 70.0 °F - 66.9 °F 90% 30.14 in 8.0 mi ESE 8.1 mph - N/A   Scattered Clouds
9:53 AM 73.0 °F - 68.0 °F 84% 30.15 in 10.0 mi ESE 11.5 mph - N/A   Partly Cloudy
10:21 AM 73.4 °F - 66.2 °F 78% 30.17 in 10.0 mi SSE 11.5 mph - N/A   Mostly Cloudy
10:53 AM 75.0 °F - 66.0 °F 73% 30.15 in 10.0 mi SSE 10.4 mph - N/A   Mostly Cloudy
11:04 AM 75.2 °F - 66.2 °F 73% 30.16 in 10.0 mi SSE 9.2 mph - N/A   Scattered Clouds
11:35 AM 75.2 °F - 66.2 °F 73% 30.15 in 10.0 mi SE 9.2 mph - N/A   Mostly Cloudy
11:53 AM 77.0 °F - 64.9 °F 66% 30.13 in 10.0 mi SE 9.2 mph - N/A   Mostly Cloudy
12:39 PM 78.8 °F - 66.2 °F 65% 30.12 in 10.0 mi SSE 16.1 mph - N/A   Scattered Clouds
12:53 PM 81.0 °F 82.7 °F 64.9 °F 58% 30.10 in 10.0 mi SSE 16.1 mph 21.9 mph N/A   Scattered Clouds
1:53 PM 82.0 °F 82.4 °F 60.1 °F 47% 30.08 in 10.0 mi SSE 12.7 mph - N/A   Scattered Clouds
2:53 PM 81.0 °F 81.7 °F 61.0 °F 50% 30.07 in 10.0 mi SSE 15.0 mph 18.4 mph N/A   Mostly Cloudy
3:53 PM 80.1 °F 81.5 °F 63.0 °F 56% 30.08 in 10.0 mi SE 15.0 mph - N/A   Partly Cloudy
4:53 PM 77.0 °F - 64.9 °F 66% 30.10 in 10.0 mi SE 15.0 mph 24.2 mph N/A   Scattered Clouds
5:53 PM 75.0 °F - 64.9 °F 71% 30.11 in 10.0 mi ESE 10.4 mph - N/A   Partly Cloudy
6:53 PM 73.0 °F - 64.0 °F 73% 30.13 in 10.0 mi ESE 11.5 mph - N/A   Clear
7:53 PM 72.0 °F - 66.0 °F 81% 30.14 in 10.0 mi ESE 11.5 mph - N/A   Clear
8:53 PM 71.1 °F - 66.9 °F 87% 30.15 in 10.0 mi SE 11.5 mph - N/A   Mostly Cloudy
9:26 PM 71.6 °F - 66.2 °F 83% 30.16 in 10.0 mi SE 13.8 mph - N/A   Mostly Cloudy
9:35 PM 71.6 °F - 66.2 °F 83% 30.17 in 10.0 mi SE 11.5 mph - N/A   Scattered Clouds
9:53 PM 70.0 °F - 66.9 °F 90% 30.16 in 9.0 mi SE 11.5 mph - N/A   Clear
10:53 PM 70.0 °F - 66.9 °F 90% 30.16 in 7.0 mi SE 8.1 mph - N/A   Mostly Cloudy
11:46 PM 69.8 °F - 66.2 °F 88% 30.17 in 6.0 mi ESE 6.9 mph - N/A   Mostly Cloudy
11:53 PM 69.1 °F - 66.9 °F 93% 30.15 in 6.0 mi ESE 9.2 mph - N/A   Scattered Clouds